Zurück zum Katalog

THORAD DELTA 1 DEB

AktivLEO
NORAD 8175·DEBRIS·🇺🇸 United States

Gestartet Nov 15, 1974 von Vandenberg Space Force Base

Loading…

Nächste Überflüge (nächste 24 Stunden)

TLE

AktuellSource: Space-Track

Epoche: Sep 14, 2026, 08:37 UTC

1 08175U 74089AR  26257.35935815  .00002433  00000-0  12182-1 0  9997
2 08175 102.5620 209.3225 0158936 218.9381 295.2849 12.68282134340784

Verfolge THORAD DELTA 1 DEB in Echtzeit mit AllMySat

Download on the App Store